M I D A S
Marine Information and Data Acquisition System
Tripno 464 of the Zeeleeuw from 2003-04-17 06:31:34 to 2003-04-17 14:26:05
Back to CruiseResearch ActivitiesStationsMapUnderway DataData graphs

EquipmentUnitsComments
TimeDGPSUTC
LatitudeDGPSDM.mWGS84
LongitudeDGPSDM.mWGS84
SpeedMeteo Stationm/sRelative wind speed
DirectionMeteo StationdegRelative wind direction
TemperatureMeteo Stationdeg CelciusAir temperature
PressureMeteo StationPaAtmospheric pressure
HumidityMeteo Station%Relative humidity
Missing or incorrect values are displayed as -999
Metereological data collected by the RV Zeeleeuw from 2003-04-17 06:31:34 to 2003-04-17 14:26:05
Time Latitude Longitude Speed Direction Temperature Pressure Humidity
2003-04-17 06:32 51°13.76 2°55.71 -999 -999 -999 -999 -999
2003-04-17 06:33 51°13.85 2°55.61 -999 -999 -999 -999 -999
2003-04-17 06:34 51°13.97 2°55.53 -999 -999 -999 -999 -999
2003-04-17 06:35 51°14.08 2°55.44 -999 -999 -999 -999 -999
2003-04-17 06:36 51°14.2 2°55.35 -999 -999 -999 -999 -999
2003-04-17 06:37 51°14.31 2°55.17 -999 -999 -999 -999 -999
2003-04-17 06:38 51°14.45 2°54.93 -999 -999 -999 -999 -999
2003-04-17 06:39 51°14.61 2°54.69 -999 -999 -999 -999 -999
2003-04-17 06:40 51°14.79 2°54.51 -999 -999 -999 -999 -999
2003-04-17 06:41 51°14.97 2°54.34 -999 -999 -999 -999 -999
2003-04-17 06:42 51°15.14 2°54.16 -999 -999 -999 -999 -999
2003-04-17 06:43 51°15.31 2°53.96 -999 -999 -999 -999 -999
2003-04-17 06:44 51°15.49 2°53.76 -999 -999 -999 -999 -999
2003-04-17 06:45 51°15.69 2°53.57 -999 -999 -999 -999 -999
2003-04-17 06:46 51°15.88 2°53.39 -999 -999 -999 -999 -999
2003-04-17 06:47 51°16.09 2°53.22 -999 -999 -999 -999 -999
2003-04-17 06:48 51°16.29 2°53.05 -999 -999 -999 -999 -999
2003-04-17 06:49 51°16.48 2°52.88 -999 -999 -999 -999 -999
2003-04-17 06:50 51°16.68 2°52.73 -999 -999 -999 -999 -999
2003-04-17 06:51 51°16.88 2°52.62 -999 -999 -999 -999 -999
2003-04-17 06:52 51°17.09 2°52.53 -999 -999 -999 -999 -999
2003-04-17 06:53 51°17.29 2°52.44 -999 -999 -999 -999 -999
2003-04-17 06:54 51°17.5 2°52.36 -999 -999 -999 -999 -999
2003-04-17 06:55 51°17.71 2°52.33 -999 -999 -999 -999 -999
2003-04-17 06:56 51°17.91 2°52.33 -999 -999 -999 -999 -999
2003-04-17 06:57 51°18.11 2°52.42 -999 -999 -999 -999 -999
2003-04-17 06:58 51°18.3 2°52.56 -999 -999 -999 -999 -999
2003-04-17 06:59 51°18.48 2°52.71 -999 -999 -999 -999 -999
2003-04-17 07:00 51°18.67 2°52.85 -999 -999 -999 -999 -999
2003-04-17 07:01 51°18.85 2°53.01 -999 -999 -999 -999 -999
2003-04-17 07:02 51°19.01 2°53.19 -999 -999 -999 -999 -999
2003-04-17 07:03 51°19.18 2°53.38 -999 -999 -999 -999 -999
2003-04-17 07:04 51°19.35 2°53.56 -999 -999 -999 -999 -999
2003-04-17 07:05 51°19.52 2°53.74 -999 -999 -999 -999 -999
2003-04-17 07:06 51°19.68 2°53.92 -999 -999 -999 -999 -999
2003-04-17 07:07 51°19.85 2°54.1 -999 -999 -999 -999 -999
2003-04-17 07:08 51°20.02 2°54.27 -999 -999 -999 -999 -999
2003-04-17 07:09 51°20.19 2°54.45 -999 -999 -999 -999 -999
2003-04-17 07:10 51°20.36 2°54.63 -999 -999 -999 -999 -999
2003-04-17 07:11 51°20.52 2°54.8 -999 -999 -999 -999 -999
2003-04-17 07:12 51°20.69 2°54.99 -999 -999 -999 -999 -999
2003-04-17 07:13 51°20.83 2°55.2 -999 -999 -999 -999 -999
2003-04-17 07:14 51°20.97 2°55.43 -999 -999 -999 -999 -999
2003-04-17 07:15 51°21.11 2°55.65 -999 -999 -999 -999 -999
2003-04-17 07:16 51°21.25 2°55.87 -999 -999 -999 -999 -999
2003-04-17 07:17 51°21.39 2°56.09 -999 -999 -999 -999 -999
2003-04-17 07:18 51°21.53 2°56.31 -999 -999 -999 -999 -999
2003-04-17 07:19 51°21.67 2°56.53 -999 -999 -999 -999 -999
2003-04-17 07:20 51°21.81 2°56.75 -999 -999 -999 -999 -999
2003-04-17 07:21 51°21.95 2°56.97 -999 -999 -999 -999 -999
2003-04-17 07:22 51°22.08 2°57.2 -999 -999 -999 -999 -999
2003-04-17 07:23 51°22.21 2°57.43 -999 -999 -999 -999 -999
2003-04-17 07:24 51°22.32 2°57.69 -999 -999 -999 -999 -999
2003-04-17 07:25 51°22.43 2°57.94 -999 -999 -999 -999 -999
2003-04-17 07:26 51°22.54 2°58.2 -999 -999 -999 -999 -999
2003-04-17 07:27 51°22.65 2°58.46 -999 -999 -999 -999 -999
2003-04-17 07:28 51°22.76 2°58.72 -999 -999 -999 -999 -999
2003-04-17 07:29 51°22.86 2°58.98 -999 -999 -999 -999 -999
2003-04-17 07:30 51°22.97 2°59.24 -999 -999 -999 -999 -999
2003-04-17 07:31 51°23.07 2°59.5 -999 -999 -999 -999 -999
2003-04-17 07:32 51°23.13 2°59.71 -999 -999 -999 -999 -999
2003-04-17 07:33 51°23.18 2°59.81 -999 -999 -999 -999 -999
2003-04-17 07:34 51°23.21 2°59.89 -999 -999 -999 -999 -999
2003-04-17 07:35 51°23.24 2°59.94 -999 -999 -999 -999 -999
2003-04-17 07:36 51°23.24 2°59.99 -999 -999 -999 -999 -999
2003-04-17 07:37 51°23.23 3°0.02 -999 -999 -999 -999 -999
2003-04-17 07:38 51°23.22 3°0.04 -999 -999 -999 -999 -999
2003-04-17 07:39 51°23.21 3°0.03 -999 -999 -999 -999 -999
2003-04-17 07:40 51°23.2 3°0.02 -999 -999 -999 -999 -999
2003-04-17 07:41 51°23.18 3°0 -999 -999 -999 -999 -999
2003-04-17 07:42 51°23.17 2°59.98 -999 -999 -999 -999 -999
2003-04-17 07:43 51°23.15 2°59.97 -999 -999 -999 -999 -999
2003-04-17 07:44 51°23.14 2°59.98 -999 -999 -999 -999 -999
2003-04-17 07:45 51°23.14 2°59.99 -999 -999 -999 -999 -999
2003-04-17 07:46 51°23.14 3°0.02 -999 -999 -999 -999 -999
2003-04-17 07:47 51°23.15 3°0.05 -999 -999 -999 -999 -999
2003-04-17 07:48 51°23.16 3°0.08 -999 -999 -999 -999 -999
2003-04-17 07:49 51°23.17 3°0.1 -999 -999 -999 -999 -999
2003-04-17 07:50 51°23.18 3°0.1 -999 -999 -999 -999 -999
2003-04-17 07:51 51°23.2 3°0.09 -999 -999 -999 -999 -999
2003-04-17 07:52 51°23.2 3°0.09 -999 -999 -999 -999 -999
2003-04-17 07:53 51°23.2 3°0.08 -999 -999 -999 -999 -999
2003-04-17 07:54 51°23.2 3°0.08 -999 -999 -999 -999 -999
2003-04-17 07:55 51°23.19 3°0.07 -999 -999 -999 -999 -999
2003-04-17 07:56 51°23.18 3°0.06 -999 -999 -999 -999 -999
2003-04-17 07:57 51°23.18 3°0.05 -999 -999 -999 -999 -999
2003-04-17 07:58 51°23.18 3°0.04 -999 -999 -999 -999 -999
2003-04-17 07:59 51°23.18 3°0.04 -999 -999 -999 -999 -999
2003-04-17 08:00 51°23.2 3°0.05 -999 -999 -999 -999 -999
2003-04-17 08:01 51°23.21 3°0.05 -999 -999 -999 -999 -999
2003-04-17 08:02 51°23.22 3°0.06 -999 -999 -999 -999 -999
2003-04-17 08:03 51°23.23 3°0.07 -999 -999 -999 -999 -999
2003-04-17 08:04 51°23.23 3°0.07 -999 -999 -999 -999 -999
2003-04-17 08:05 51°23.23 3°0.07 -999 -999 -999 -999 -999
2003-04-17 08:06 51°23.22 3°0.07 -999 -999 -999 -999 -999
2003-04-17 08:07 51°23.21 3°0.06 -999 -999 -999 -999 -999
2003-04-17 08:08 51°23.21 3°0.05 -999 -999 -999 -999 -999
2003-04-17 08:09 51°23.2 3°0.04 -999 -999 -999 -999 -999
2003-04-17 08:10 51°23.2 3°0.03 -999 -999 -999 -999 -999
2003-04-17 08:11 51°23.19 3°0.01 -999 -999 -999 -999 -999
2003-04-17 08:12 51°23.18 3°0 -999 -999 -999 -999 -999
2003-04-17 08:13 51°23.2 3°0.05 -999 -999 -999 -999 -999
2003-04-17 08:14 51°23.23 3°0.32 -999 -999 -999 -999 -999
2003-04-17 08:15 51°23.16 3°0.62 -999 -999 -999 -999 -999
2003-04-17 08:16 51°23.1 3°0.93 -999 -999 -999 -999 -999
2003-04-17 08:17 51°23.04 3°1.23 -999 -999 -999 -999 -999
2003-04-17 08:18 51°23 3°1.55 -999 -999 -999 -999 -999
2003-04-17 08:19 51°22.95 3°1.86 -999 -999 -999 -999 -999
2003-04-17 08:20 51°22.89 3°2.17 -999 -999 -999 -999 -999
2003-04-17 08:21 51°22.83 3°2.48 -999 -999 -999 -999 -999
2003-04-17 08:22 51°22.77 3°2.8 -999 -999 -999 -999 -999
2003-04-17 08:23 51°22.72 3°3.11 -999 -999 -999 -999 -999
2003-04-17 08:24 51°22.66 3°3.43 -999 -999 -999 -999 -999
2003-04-17 08:25 51°22.6 3°3.74 -999 -999 -999 -999 -999
2003-04-17 08:26 51°22.55 3°4.05 -999 -999 -999 -999 -999
2003-04-17 08:27 51°22.53 3°4.37 -999 -999 -999 -999 -999
2003-04-17 08:28 51°22.51 3°4.7 -999 -999 -999 -999 -999
2003-04-17 08:29 51°22.5 3°5.02 -999 -999 -999 -999 -999
2003-04-17 08:30 51°22.51 3°5.35 -999 -999 -999 -999 -999
2003-04-17 08:31 51°22.52 3°5.68 -999 -999 -999 -999 -999
2003-04-17 08:32 51°22.53 3°6.01 -999 -999 -999 -999 -999
2003-04-17 08:33 51°22.54 3°6.34 -999 -999 -999 -999 -999
2003-04-17 08:34 51°22.55 3°6.67 -999 -999 -999 -999 -999
2003-04-17 08:35 51°22.55 3°7.01 -999 -999 -999 -999 -999
2003-04-17 08:36 51°22.54 3°7.34 -999 -999 -999 -999 -999
2003-04-17 08:37 51°22.54 3°7.67 -999 -999 -999 -999 -999
2003-04-17 08:38 51°22.56 3°8.01 -999 -999 -999 -999 -999
2003-04-17 08:39 51°22.57 3°8.33 -999 -999 -999 -999 -999
2003-04-17 08:40 51°22.59 3°8.62 -999 -999 -999 -999 -999
2003-04-17 08:41 51°22.6 3°8.8 -999 -999 -999 -999 -999
2003-04-17 08:42 51°22.61 3°8.91 -999 -999 -999 -999 -999
2003-04-17 08:43 51°22.62 3°8.98 -999 -999 -999 -999 -999
2003-04-17 08:44 51°22.62 3°9.05 -999 -999 -999 -999 -999
2003-04-17 08:45 51°22.63 3°9.11 -999 -999 -999 -999 -999
2003-04-17 08:46 51°22.63 3°9.17 -999 -999 -999 -999 -999
2003-04-17 08:47 51°22.64 3°9.26 -999 -999 -999 -999 -999
2003-04-17 08:48 51°22.66 3°9.35 -999 -999 -999 -999 -999
2003-04-17 08:49 51°22.68 3°9.42 -999 -999 -999 -999 -999
2003-04-17 08:50 51°22.7 3°9.44 -999 -999 -999 -999 -999
2003-04-17 08:51 51°22.71 3°9.45 -999 -999 -999 -999 -999
2003-04-17 08:52 51°22.71 3°9.46 -999 -999 -999 -999 -999
2003-04-17 08:53 51°22.71 3°9.46 -999 -999 -999 -999 -999
2003-04-17 08:54 51°22.72 3°9.47 -999 -999 -999 -999 -999
2003-04-17 08:55 51°22.72 3°9.48 -999 -999 -999 -999 -999
2003-04-17 08:56 51°22.71 3°9.49 -999 -999 -999 -999 -999
2003-04-17 08:57 51°22.71 3°9.49 -999 -999 -999 -999 -999
2003-04-17 08:58 51°22.71 3°9.49 -999 -999 -999 -999 -999
2003-04-17 08:59 51°22.71 3°9.5 -999 -999 -999 -999 -999
2003-04-17 09:00 51°22.71 3°9.49 -999 -999 -999 -999 -999
2003-04-17 09:01 51°22.7 3°9.49 -999 -999 -999 -999 -999
2003-04-17 09:02 51°22.69 3°9.48 -999 -999 -999 -999 -999
2003-04-17 09:03 51°22.68 3°9.47 -999 -999 -999 -999 -999
2003-04-17 09:04 51°22.68 3°9.46 -999 -999 -999 -999 -999
2003-04-17 09:05 51°22.68 3°9.44 -999 -999 -999 -999 -999
2003-04-17 09:06 51°22.68 3°9.42 -999 -999 -999 -999 -999
2003-04-17 09:07 51°22.68 3°9.39 -999 -999 -999 -999 -999
2003-04-17 09:08 51°22.68 3°9.37 -999 -999 -999 -999 -999
2003-04-17 09:09 51°22.69 3°9.35 -999 -999 -999 -999 -999
2003-04-17 09:10 51°22.7 3°9.35 -999 -999 -999 -999 -999
2003-04-17 09:11 51°22.7 3°9.34 -999 -999 -999 -999 -999
2003-04-17 09:12 51°22.7 3°9.35 -999 -999 -999 -999 -999
2003-04-17 09:13 51°22.69 3°9.35 -999 -999 -999 -999 -999
2003-04-17 09:14 51°22.66 3°9.35 -999 -999 -999 -999 -999
2003-04-17 09:15 51°22.63 3°9.34 -999 -999 -999 -999 -999
2003-04-17 09:16 51°22.6 3°9.33 -999 -999 -999 -999 -999
2003-04-17 09:17 51°22.57 3°9.31 -999 -999 -999 -999 -999
2003-04-17 09:18 51°22.52 3°9.29 -999 -999 -999 -999 -999
2003-04-17 09:19 51°22.47 3°9.2 -999 -999 -999 -999 -999
2003-04-17 09:20 51°22.48 3°9.03 -999 -999 -999 -999 -999
2003-04-17 09:21 51°22.56 3°8.85 -999 -999 -999 -999 -999
2003-04-17 09:22 51°22.64 3°8.64 -999 -999 -999 -999 -999
2003-04-17 09:23 51°22.72 3°8.42 -999 -999 -999 -999 -999
2003-04-17 09:24 51°22.8 3°8.19 -999 -999 -999 -999 -999
2003-04-17 09:25 51°22.88 3°7.96 -999 -999 -999 -999 -999
2003-04-17 09:26 51°22.96 3°7.75 -999 -999 -999 -999 -999
2003-04-17 09:27 51°23.08 3°7.59 -999 -999 -999 -999 -999
2003-04-17 09:28 51°23.2 3°7.4 -999 -999 -999 -999 -999
2003-04-17 09:29 51°23.36 3°7.19 -999 -999 -999 -999 -999
2003-04-17 09:30 51°23.52 3°6.98 -999 -999 -999 -999 -999
2003-04-17 09:31 51°23.7 3°6.79 -999 -999 -999 -999 -999
2003-04-17 09:32 51°23.89 3°6.65 -999 -999 -999 -999 -999
2003-04-17 09:33 51°24.08 3°6.71 -999 -999 -999 -999 -999
2003-04-17 09:34 51°24.21 3°6.9 -999 -999 -999 -999 -999
2003-04-17 09:35 51°24.27 3°7.02 -999 -999 -999 -999 -999
2003-04-17 09:36 51°24.27 3°7.05 -999 -999 -999 -999 -999
2003-04-17 09:37 51°24.26 3°7.07 -999 -999 -999 -999 -999
2003-04-17 09:38 51°24.24 3°7.11 -999 -999 -999 -999 -999
2003-04-17 09:39 51°24.24 3°7.15 -999 -999 -999 -999 -999
2003-04-17 09:40 51°24.25 3°7.17 -999 -999 -999 -999 -999
2003-04-17 09:41 51°24.25 3°7.17 -999 -999 -999 -999 -999
2003-04-17 09:42 51°24.25 3°7.18 -999 -999 -999 -999 -999
2003-04-17 09:43 51°24.24 3°7.19 -999 -999 -999 -999 -999
2003-04-17 09:44 51°24.24 3°7.19 -999 -999 -999 -999 -999
2003-04-17 09:45 51°24.23 3°7.2 -999 -999 -999 -999 -999
2003-04-17 09:46 51°24.22 3°7.2 -999 -999 -999 -999 -999
2003-04-17 09:47 51°24.21 3°7.2 -999 -999 -999 -999 -999
2003-04-17 09:48 51°24.21 3°7.19 -999 -999 -999 -999 -999
2003-04-17 09:49 51°24.22 3°7.2 -999 -999 -999 -999 -999
2003-04-17 09:50 51°24.25 3°7.22 -999 -999 -999 -999 -999
2003-04-17 09:51 51°24.27 3°7.23 -999 -999 -999 -999 -999
2003-04-17 09:52 51°24.28 3°7.24 -999 -999 -999 -999 -999
2003-04-17 09:53 51°24.29 3°7.25 -999 -999 -999 -999 -999
2003-04-17 09:54 51°24.29 3°7.26 -999 -999 -999 -999 -999
2003-04-17 09:55 51°24.3 3°7.27 -999 -999 -999 -999 -999
2003-04-17 09:56 51°24.29 3°7.27 -999 -999 -999 -999 -999
2003-04-17 09:57 51°24.29 3°7.27 -999 -999 -999 -999 -999
2003-04-17 09:58 51°24.28 3°7.27 -999 -999 -999 -999 -999
2003-04-17 09:59 51°24.27 3°7.27 -999 -999 -999 -999 -999
2003-04-17 10:00 51°24.27 3°7.27 -999 -999 -999 -999 -999
2003-04-17 10:01 51°24.27 3°7.28 -999 -999 -999 -999 -999
2003-04-17 10:02 51°24.28 3°7.3 -999 -999 -999 -999 -999
2003-04-17 10:03 51°24.29 3°7.32 -999 -999 -999 -999 -999
2003-04-17 10:04 51°24.29 3°7.34 -999 -999 -999 -999 -999
2003-04-17 10:05 51°24.3 3°7.37 -999 -999 -999 -999 -999
2003-04-17 10:06 51°24.3 3°7.38 -999 -999 -999 -999 -999
2003-04-17 10:07 51°24.31 3°7.4 -999 -999 -999 -999 -999
2003-04-17 10:08 51°24.34 3°7.38 -999 -999 -999 -999 -999
2003-04-17 10:09 51°24.45 3°7.39 -999 -999 -999 -999 -999
2003-04-17 10:10 51°24.59 3°7.42 -999 -999 -999 -999 -999
2003-04-17 10:11 51°24.72 3°7.45 -999 -999 -999 -999 -999
2003-04-17 10:12 51°24.86 3°7.48 -999 -999 -999 -999 -999
2003-04-17 10:13 51°24.99 3°7.51 -999 -999 -999 -999 -999
2003-04-17 10:14 51°25.12 3°7.53 -999 -999 -999 -999 -999
2003-04-17 10:15 51°25.25 3°7.56 -999 -999 -999 -999 -999
2003-04-17 10:16 51°25.38 3°7.58 -999 -999 -999 -999 -999
2003-04-17 10:17 51°25.51 3°7.62 -999 -999 -999 -999 -999
2003-04-17 10:18 51°25.64 3°7.66 -999 -999 -999 -999 -999
2003-04-17 10:19 51°25.76 3°7.71 -999 -999 -999 -999 -999
2003-04-17 10:20 51°25.89 3°7.77 -999 -999 -999 -999 -999
2003-04-17 10:21 51°26.01 3°7.83 -999 -999 -999 -999 -999
2003-04-17 10:22 51°26.14 3°7.89 -999 -999 -999 -999 -999
2003-04-17 10:23 51°26.26 3°7.95 -999 -999 -999 -999 -999
2003-04-17 10:24 51°26.39 3°8.01 -999 -999 -999 -999 -999
2003-04-17 10:25 51°26.51 3°8.07 -999 -999 -999 -999 -999
2003-04-17 10:26 51°26.64 3°8.13 -999 -999 -999 -999 -999
2003-04-17 10:27 51°26.77 3°8.19 -999 -999 -999 -999 -999
2003-04-17 10:28 51°26.89 3°8.25 -999 -999 -999 -999 -999
2003-04-17 10:29 51°27.02 3°8.31 -999 -999 -999 -999 -999
2003-04-17 10:30 51°27.15 3°8.38 -999 -999 -999 -999 -999
2003-04-17 10:31 51°27.27 3°8.44 -999 -999 -999 -999 -999
2003-04-17 10:32 51°27.39 3°8.5 -999 -999 -999 -999 -999
2003-04-17 10:33 51°27.47 3°8.54 -999 -999 -999 -999 -999
2003-04-17 10:34 51°27.52 3°8.57 -999 -999 -999 -999 -999
2003-04-17 10:35 51°27.55 3°8.62 -999 -999 -999 -999 -999
2003-04-17 10:36 51°27.57 3°8.67 -999 -999 -999 -999 -999
2003-04-17 10:37 51°27.59 3°8.71 -999 -999 -999 -999 -999
2003-04-17 10:38 51°27.61 3°8.76 -999 -999 -999 -999 -999
2003-04-17 10:39 51°27.63 3°8.81 -999 -999 -999 -999 -999
2003-04-17 10:40 51°27.67 3°8.87 -999 -999 -999 -999 -999
2003-04-17 10:41 51°27.71 3°8.93 -999 -999 -999 -999 -999
2003-04-17 10:42 51°27.75 3°9 -999 -999 -999 -999 -999
2003-04-17 10:43 51°27.8 3°9.06 -999 -999 -999 -999 -999
2003-04-17 10:44 51°27.86 3°9.11 -999 -999 -999 -999 -999
2003-04-17 10:45 51°27.91 3°9.15 -999 -999 -999 -999 -999
2003-04-17 10:46 51°27.97 3°9.18 -999 -999 -999 -999 -999
2003-04-17 10:47 51°28.03 3°9.19 -999 -999 -999 -999 -999
2003-04-17 10:48 51°28.07 3°9.17 -999 -999 -999 -999 -999
2003-04-17 10:49 51°28.09 3°9.14 -999 -999 -999 -999 -999
2003-04-17 10:50 51°28.11 3°9.11 -999 -999 -999 -999 -999
2003-04-17 10:51 51°28.12 3°9.09 -999 -999 -999 -999 -999
2003-04-17 10:52 51°28.13 3°9.07 -999 -999 -999 -999 -999
2003-04-17 10:53 51°28.14 3°9.06 -999 -999 -999 -999 -999
2003-04-17 10:54 51°28.14 3°9.06 -999 -999 -999 -999 -999
2003-04-17 10:55 51°28.15 3°9.06 -999 -999 -999 -999 -999
2003-04-17 10:56 51°28.15 3°9.05 -999 -999 -999 -999 -999
2003-04-17 10:57 51°28.15 3°9.05 -999 -999 -999 -999 -999
2003-04-17 10:58 51°28.16 3°9.05 -999 -999 -999 -999 -999
2003-04-17 10:59 51°28.16 3°9.04 -999 -999 -999 -999 -999
2003-04-17 11:00 51°28.17 3°9.04 -999 -999 -999 -999 -999
2003-04-17 11:01 51°28.17 3°9.04 -999 -999 -999 -999 -999
2003-04-17 11:02 51°28.18 3°9.03 -999 -999 -999 -999 -999
2003-04-17 11:03 51°28.19 3°9.03 -999 -999 -999 -999 -999
2003-04-17 11:04 51°28.19 3°9.02 -999 -999 -999 -999 -999
2003-04-17 11:05 51°28.2 3°9.02 -999 -999 -999 -999 -999
2003-04-17 11:06 51°28.21 3°9.01 -999 -999 -999 -999 -999
2003-04-17 11:07 51°28.22 3°9.01 -999 -999 -999 -999 -999
2003-04-17 11:08 51°28.22 3°9.01 -999 -999 -999 -999 -999
2003-04-17 11:09 51°28.23 3°9.02 -999 -999 -999 -999 -999
2003-04-17 11:10 51°28.22 3°9.03 -999 -999 -999 -999 -999
2003-04-17 11:11 51°28.22 3°9.05 -999 -999 -999 -999 -999
2003-04-17 11:12 51°28.21 3°9.06 -999 -999 -999 -999 -999
2003-04-17 11:13 51°28.2 3°9.07 -999 -999 -999 -999 -999
2003-04-17 11:14 51°28.19 3°9.08 -999 -999 -999 -999 -999
2003-04-17 11:15 51°28.18 3°9.09 -999 -999 -999 -999 -999
2003-04-17 11:16 51°28.18 3°9.11 -999 -999 -999 -999 -999
2003-04-17 11:17 51°28.18 3°9.12 -999 -999 -999 -999 -999
2003-04-17 11:18 51°28.17 3°9.15 -999 -999 -999 -999 -999
2003-04-17 11:19 51°28.17 3°9.19 -999 -999 -999 -999 -999
2003-04-17 11:20 51°28.15 3°9.24 -999 -999 -999 -999 -999
2003-04-17 11:21 51°28.12 3°9.29 -999 -999 -999 -999 -999
2003-04-17 11:22 51°28.08 3°9.36 -999 -999 -999 -999 -999
2003-04-17 11:23 51°28.09 3°9.55 -999 -999 -999 -999 -999
2003-04-17 11:24 51°28.25 3°9.55 -999 -999 -999 -999 -999
2003-04-17 11:25 51°28.3 3°9.27 -999 -999 -999 -999 -999
2003-04-17 11:26 51°28.32 3°8.93 -999 -999 -999 -999 -999
2003-04-17 11:27 51°28.35 3°8.59 -999 -999 -999 -999 -999
2003-04-17 11:28 51°28.38 3°8.26 -999 -999 -999 -999 -999
2003-04-17 11:29 51°28.41 3°7.92 -999 -999 -999 -999 -999
2003-04-17 11:30 51°28.44 3°7.58 -999 -999 -999 -999 -999
2003-04-17 11:31 51°28.47 3°7.24 -999 -999 -999 -999 -999
2003-04-17 11:32 51°28.5 3°6.9 -999 -999 -999 -999 -999
2003-04-17 11:33 51°28.54 3°6.56 -999 -999 -999 -999 -999
2003-04-17 11:34 51°28.57 3°6.23 -999 -999 -999 -999 -999
2003-04-17 11:35 51°28.61 3°5.89 -999 -999 -999 -999 -999
2003-04-17 11:36 51°28.64 3°5.55 -999 -999 -999 -999 -999
2003-04-17 11:37 51°28.64 3°5.21 -999 -999 -999 -999 -999
2003-04-17 11:38 51°28.65 3°4.87 -999 -999 -999 -999 -999
2003-04-17 11:39 51°28.65 3°4.53 -999 -999 -999 -999 -999
2003-04-17 11:40 51°28.66 3°4.19 -999 -999 -999 -999 -999
2003-04-17 11:41 51°28.66 3°3.88 -999 -999 -999 -999 -999
2003-04-17 11:42 51°28.68 3°3.74 -999 -999 -999 -999 -999
2003-04-17 11:43 51°28.69 3°3.71 -999 -999 -999 -999 -999
2003-04-17 11:44 51°28.7 3°3.71 -999 -999 -999 -999 -999
2003-04-17 11:45 51°28.71 3°3.71 -999 -999 -999 -999 -999
2003-04-17 11:46 51°28.72 3°3.72 -999 -999 -999 -999 -999
2003-04-17 11:47 51°28.73 3°3.74 -999 -999 -999 -999 -999
2003-04-17 11:48 51°28.74 3°3.76 -999 -999 -999 -999 -999
2003-04-17 11:49 51°28.74 3°3.78 -999 -999 -999 -999 -999
2003-04-17 11:50 51°28.74 3°3.8 -999 -999 -999 -999 -999
2003-04-17 11:51 51°28.75 3°3.82 -999 -999 -999 -999 -999
2003-04-17 11:52 51°28.75 3°3.85 -999 -999 -999 -999 -999
2003-04-17 11:53 51°28.75 3°3.87 -999 -999 -999 -999 -999
2003-04-17 11:54 51°28.76 3°3.89 -999 -999 -999 -999 -999
2003-04-17 11:55 51°28.76 3°3.92 -999 -999 -999 -999 -999
2003-04-17 11:56 51°28.76 3°3.94 -999 -999 -999 -999 -999
2003-04-17 11:57 51°28.76 3°3.97 -999 -999 -999 -999 -999
2003-04-17 11:58 51°28.77 3°3.99 -999 -999 -999 -999 -999
2003-04-17 11:59 51°28.77 3°4.02 -999 -999 -999 -999 -999
2003-04-17 12:00 51°28.77 3°4.04 -999 -999 -999 -999 -999
2003-04-17 12:01 51°28.78 3°4.07 -999 -999 -999 -999 -999
2003-04-17 12:02 51°28.78 3°4.09 -999 -999 -999 -999 -999
2003-04-17 12:03 51°28.79 3°4.12 -999 -999 -999 -999 -999
2003-04-17 12:04 51°28.8 3°4.15 -999 -999 -999 -999 -999
2003-04-17 12:05 51°28.8 3°4.18 -999 -999 -999 -999 -999
2003-04-17 12:06 51°28.81 3°4.2 -999 -999 -999 -999 -999
2003-04-17 12:07 51°28.83 3°4.23 -999 -999 -999 -999 -999
2003-04-17 12:08 51°28.85 3°4.25 -999 -999 -999 -999 -999
2003-04-17 12:09 51°28.87 3°4.28 -999 -999 -999 -999 -999
2003-04-17 12:10 51°28.89 3°4.32 -999 -999 -999 -999 -999
2003-04-17 12:11 51°28.92 3°4.35 -999 -999 -999 -999 -999
2003-04-17 12:12 51°28.94 3°4.39 -999 -999 -999 -999 -999
2003-04-17 12:13 51°28.96 3°4.43 -999 -999 -999 -999 -999
2003-04-17 12:14 51°28.99 3°4.48 -999 -999 -999 -999 -999
2003-04-17 12:15 51°29.11 3°4.44 -999 -999 -999 -999 -999
2003-04-17 12:16 51°29.1 3°4.16 -999 -999 -999 -999 -999
2003-04-17 12:17 51°29.01 3°3.86 -999 -999 -999 -999 -999
2003-04-17 12:18 51°28.94 3°3.55 -999 -999 -999 -999 -999
2003-04-17 12:19 51°28.86 3°3.25 -999 -999 -999 -999 -999
2003-04-17 12:20 51°28.79 3°2.94 -999 -999 -999 -999 -999
2003-04-17 12:21 51°28.72 3°2.63 -999 -999 -999 -999 -999
2003-04-17 12:22 51°28.65 3°2.33 -999 -999 -999 -999 -999
2003-04-17 12:23 51°28.59 3°2.02 -999 -999 -999 -999 -999
2003-04-17 12:24 51°28.53 3°1.71 -999 -999 -999 -999 -999
2003-04-17 12:25 51°28.47 3°1.4 -999 -999 -999 -999 -999
2003-04-17 12:26 51°28.41 3°1.09 -999 -999 -999 -999 -999
2003-04-17 12:27 51°28.35 3°0.78 -999 -999 -999 -999 -999
2003-04-17 12:28 51°28.29 3°0.47 -999 -999 -999 -999 -999
2003-04-17 12:29 51°28.23 3°0.16 -999 -999 -999 -999 -999
2003-04-17 12:30 51°28.18 2°59.85 -999 -999 -999 -999 -999
2003-04-17 12:31 51°28.12 2°59.54 -999 -999 -999 -999 -999
2003-04-17 12:32 51°28.06 2°59.24 -999 -999 -999 -999 -999
2003-04-17 12:33 51°28.01 2°58.92 -999 -999 -999 -999 -999
2003-04-17 12:34 51°27.95 2°58.61 -999 -999 -999 -999 -999
2003-04-17 12:35 51°27.9 2°58.3 -999 -999 -999 -999 -999
2003-04-17 12:36 51°27.85 2°57.98 -999 -999 -999 -999 -999
2003-04-17 12:37 51°27.79 2°57.67 -999 -999 -999 -999 -999
2003-04-17 12:38 51°27.73 2°57.36 -999 -999 -999 -999 -999
2003-04-17 12:39 51°27.68 2°57.05 -999 -999 -999 -999 -999
2003-04-17 12:40 51°27.62 2°56.74 -999 -999 -999 -999 -999
2003-04-17 12:41 51°27.56 2°56.43 -999 -999 -999 -999 -999
2003-04-17 12:42 51°27.51 2°56.13 -999 -999 -999 -999 -999
2003-04-17 12:43 51°27.45 2°55.82 -999 -999 -999 -999 -999
2003-04-17 12:44 51°27.39 2°55.51 -999 -999 -999 -999 -999
2003-04-17 12:45 51°27.33 2°55.2 -999 -999 -999 -999 -999
2003-04-17 12:46 51°27.27 2°54.89 -999 -999 -999 -999 -999
2003-04-17 12:47 51°27.21 2°54.59 -999 -999 -999 -999 -999
2003-04-17 12:48 51°27.15 2°54.28 -999 -999 -999 -999 -999
2003-04-17 12:49 51°27.08 2°53.98 -999 -999 -999 -999 -999
2003-04-17 12:50 51°27.02 2°53.68 -999 -999 -999 -999 -999
2003-04-17 12:51 51°26.95 2°53.37 -999 -999 -999 -999 -999
2003-04-17 12:52 51°26.88 2°53.07 -999 -999 -999 -999 -999
2003-04-17 12:53 51°26.81 2°52.76 -999 -999 -999 -999 -999
2003-04-17 12:54 51°26.74 2°52.45 -999 -999 -999 -999 -999
2003-04-17 12:55 51°26.67 2°52.15 -999 -999 -999 -999 -999
2003-04-17 12:56 51°26.61 2°51.85 -999 -999 -999 -999 -999
2003-04-17 12:57 51°26.54 2°51.55 -999 -999 -999 -999 -999
2003-04-17 12:58 51°26.47 2°51.24 -999 -999 -999 -999 -999
2003-04-17 12:59 51°26.41 2°50.94 -999 -999 -999 -999 -999
2003-04-17 13:00 51°26.34 2°50.64 -999 -999 -999 -999 -999
2003-04-17 13:01 51°26.27 2°50.34 -999 -999 -999 -999 -999
2003-04-17 13:02 51°26.21 2°50.04 -999 -999 -999 -999 -999
2003-04-17 13:03 51°26.15 2°49.73 -999 -999 -999 -999 -999
2003-04-17 13:04 51°26.1 2°49.43 -999 -999 -999 -999 -999
2003-04-17 13:05 51°26.05 2°49.17 -999 -999 -999 -999 -999
2003-04-17 13:06 51°26.04 2°48.98 -999 -999 -999 -999 -999
2003-04-17 13:07 51°26.01 2°48.82 -999 -999 -999 -999 -999
2003-04-17 13:08 51°26.01 2°48.65 -999 -999 -999 -999 -999
2003-04-17 13:09 51°26.04 2°48.53 -999 -999 -999 -999 -999
2003-04-17 13:10 51°26.04 2°48.5 -999 -999 -999 -999 -999
2003-04-17 13:11 51°26.04 2°48.49 -999 -999 -999 -999 -999
2003-04-17 13:12 51°26.05 2°48.49 -999 -999 -999 -999 -999
2003-04-17 13:13 51°26.07 2°48.49 -999 -999 -999 -999 -999
2003-04-17 13:14 51°26.09 2°48.51 -999 -999 -999 -999 -999
2003-04-17 13:15 51°26.11 2°48.52 -999 -999 -999 -999 -999
2003-04-17 13:16 51°26.13 2°48.53 -999 -999 -999 -999 -999
2003-04-17 13:17 51°26.14 2°48.52 -999 -999 -999 -999 -999
2003-04-17 13:18 51°26.14 2°48.51 -999 -999 -999 -999 -999
2003-04-17 13:19 51°26.13 2°48.53 -999 -999 -999 -999 -999
2003-04-17 13:20 51°26.11 2°48.56 -999 -999 -999 -999 -999
2003-04-17 13:21 51°26.1 2°48.59 -999 -999 -999 -999 -999
2003-04-17 13:22 51°26.09 2°48.62 -999 -999 -999 -999 -999
2003-04-17 13:23 51°26.09 2°48.63 -999 -999 -999 -999 -999
2003-04-17 13:24 51°26.09 2°48.65 -999 -999 -999 -999 -999
2003-04-17 13:25 51°26.09 2°48.65 -999 -999 -999 -999 -999
2003-04-17 13:26 51°26.1 2°48.66 -999 -999 -999 -999 -999
2003-04-17 13:27 51°26.12 2°48.66 -999 -999 -999 -999 -999
2003-04-17 13:28 51°26.14 2°48.68 -999 -999 -999 -999 -999
2003-04-17 13:29 51°26.17 2°48.65 -999 -999 -999 -999 -999
2003-04-17 13:30 51°26.08 2°48.62 -999 -999 -999 -999 -999
2003-04-17 13:31 51°25.88 2°48.72 -999 -999 -999 -999 -999
2003-04-17 13:32 51°25.68 2°48.84 -999 -999 -999 -999 -999
2003-04-17 13:33 51°25.48 2°48.95 -999 -999 -999 -999 -999
2003-04-17 13:34 51°25.27 2°49.06 -999 -999 -999 -999 -999
2003-04-17 13:35 51°25.06 2°49.16 -999 -999 -999 -999 -999
2003-04-17 13:36 51°24.85 2°49.26 -999 -999 -999 -999 -999
2003-04-17 13:37 51°24.64 2°49.35 -999 -999 -999 -999 -999
2003-04-17 13:38 51°24.43 2°49.45 -999 -999 -999 -999 -999
2003-04-17 13:39 51°24.22 2°49.54 -999 -999 -999 -999 -999
2003-04-17 13:40 51°24.01 2°49.62 -999 -999 -999 -999 -999
2003-04-17 13:41 51°23.8 2°49.71 -999 -999 -999 -999 -999
2003-04-17 13:42 51°23.58 2°49.8 -999 -999 -999 -999 -999
2003-04-17 13:43 51°23.37 2°49.88 -999 -999 -999 -999 -999
2003-04-17 13:44 51°23.16 2°49.98 -999 -999 -999 -999 -999
2003-04-17 13:45 51°22.95 2°50.07 -999 -999 -999 -999 -999
2003-04-17 13:46 51°22.74 2°50.17 -999 -999 -999 -999 -999
2003-04-17 13:47 51°22.52 2°50.26 -999 -999 -999 -999 -999
2003-04-17 13:48 51°22.31 2°50.36 -999 -999 -999 -999 -999
2003-04-17 13:49 51°22.1 2°50.45 -999 -999 -999 -999 -999
2003-04-17 13:50 51°21.88 2°50.55 -999 -999 -999 -999 -999
2003-04-17 13:51 51°21.67 2°50.64 -999 -999 -999 -999 -999
2003-04-17 13:52 51°21.46 2°50.73 -999 -999 -999 -999 -999
2003-04-17 13:53 51°21.25 2°50.82 -999 -999 -999 -999 -999
2003-04-17 13:54 51°21.04 2°50.91 -999 -999 -999 -999 -999
2003-04-17 13:55 51°20.83 2°51.01 -999 -999 -999 -999 -999
2003-04-17 13:56 51°20.62 2°51.09 -999 -999 -999 -999 -999
2003-04-17 13:57 51°20.41 2°51.18 -999 -999 -999 -999 -999
2003-04-17 13:58 51°20.19 2°51.25 -999 -999 -999 -999 -999
2003-04-17 13:59 51°19.98 2°51.32 -999 -999 -999 -999 -999
2003-04-17 14:00 51°19.76 2°51.39 -999 -999 -999 -999 -999
2003-04-17 14:01 51°19.54 2°51.46 -999 -999 -999 -999 -999
2003-04-17 14:02 51°19.33 2°51.53 -999 -999 -999 -999 -999
2003-04-17 14:03 51°19.11 2°51.6 -999 -999 -999 -999 -999
2003-04-17 14:04 51°18.9 2°51.67 -999 -999 -999 -999 -999
2003-04-17 14:05 51°18.68 2°51.74 -999 -999 -999 -999 -999
2003-04-17 14:06 51°18.47 2°51.81 -999 -999 -999 -999 -999
2003-04-17 14:07 51°18.26 2°51.87 -999 -999 -999 -999 -999
2003-04-17 14:08 51°18.05 2°51.94 -999 -999 -999 -999 -999
2003-04-17 14:09 51°17.84 2°52.03 -999 -999 -999 -999 -999
2003-04-17 14:10 51°17.64 2°52.17 -999 -999 -999 -999 -999
2003-04-17 14:11 51°17.44 2°52.3 -999 -999 -999 -999 -999
2003-04-17 14:12 51°17.23 2°52.44 -999 -999 -999 -999 -999
2003-04-17 14:13 51°17.03 2°52.58 -999 -999 -999 -999 -999
2003-04-17 14:14 51°16.82 2°52.71 -999 -999 -999 -999 -999
2003-04-17 14:15 51°16.62 2°52.86 -999 -999 -999 -999 -999
2003-04-17 14:16 51°16.42 2°53.01 -999 -999 -999 -999 -999
2003-04-17 14:17 51°16.22 2°53.16 -999 -999 -999 -999 -999
2003-04-17 14:18 51°16.02 2°53.33 -999 -999 -999 -999 -999
2003-04-17 14:19 51°15.81 2°53.49 -999 -999 -999 -999 -999
2003-04-17 14:20 51°15.61 2°53.67 -999 -999 -999 -999 -999
2003-04-17 14:21 51°15.41 2°53.84 -999 -999 -999 -999 -999
2003-04-17 14:22 51°15.21 2°54.02 -999 -999 -999 -999 -999
2003-04-17 14:23 51°15.02 2°54.2 -999 -999 -999 -999 -999
2003-04-17 14:24 51°14.84 2°54.38 -999 -999 -999 -999 -999
2003-04-17 14:25 51°14.68 2°54.59 -999 -999 -999 -999 -999